Regional Weather Roundup
Issued by NWS

Home | Current Version | Previous Version | Graphics & Text | Print | Product List | Glossary On
Versions: 1 2 3 4 5 6 7 8 9 10 11 12 13 14 15 16 17 18 19 20 21 22 23 24 25 26 27 28 29 30 31 32 33 34 35 36 37 38 39 40 41 42 43 44 45 46 47 48 49 50
000
ASUS43 KBIS 280010
RWRND

NORTH DAKOTA REGIONAL WEATHER ROUNDUP
NATIONAL WEATHER SERVICE BISMARCK ND
600 PM CST THU NOV 27 2014

NOTE: "FAIR" INDICATES FEW OR NO CLOUDS BELOW 12,000 FEET WITH NO
SIGNIFICANT WEATHER AND/OR OBSTRUCTIONS TO VISIBILITY.


NDZ001>003-009>011-017-280100-
NORTHWEST NORTH DAKOTA

CITY           SKY/WX    TMP DP  RH WIND       PRES   REMARKS
WILLISTON      CLOUDY    19  14  81 E10       29.85S WCI   7
6HR MIN TEMP:  19; 6HR MAX TEMP:  21; 6HR PCP:  0.17;

MINOT          LGT SNOW  12   8  84 E12       29.99R FOG     WCI  -2
MINOT AFB      CLOUDY    12  10  92 SE16      29.99S BLWGSNOWWCI  -4
$$

NDZ018>021-031>035-040>046-280100-
SOUTHWEST NORTH DAKOTA

CITY           SKY/WX    TMP DP  RH WIND       PRES   REMARKS
BISMARCK       FLURRIES  12   8  84 SE18      29.99F WCI  -6
6HR MIN TEMP:   7; 6HR MAX TEMP:  12; 6HR PCP:  0.08;

DICKINSON      CLOUDY    25  20  81 S16       29.78F WCI  12
GARRISON         N/A     13   9  84 SE14      29.94S WCI  -2
6HR MIN TEMP:  10; 6HR MAX TEMP:  13; 6HR PCP:  0.11;

HETTINGER ARPT MOCLDY    24  20  84 S8        29.85F WCI  15
$$

NDZ004>008-012>016-024-026-027-054-280100-
NORTHEAST NORTH DAKOTA

CITY           SKY/WX    TMP DP  RH WIND       PRES   REMARKS
GRAND FORKS    CLOUDY     5  -3  69 S13       30.25F WCI -12
GRND FRKS AFB  MOCLDY     5  -4  67 S13       30.24F WCI -12
DEVILS LAKE    CLOUDY     7  -6  56 SE12      30.10F WCI  -9
$$

NDZ022-023-025-028>030-036>039-047>053-280100-
SOUTHEAST NORTH DAKOTA

CITY           SKY/WX    TMP DP  RH WIND       PRES   REMARKS
FARGO          MOCLDY     8  -2  63 S13       30.26F WCI  -8
6HR MIN TEMP:   2; 6HR MAX TEMP:   9;

JAMESTOWN      LGT SNOW   6   0  76 SE12      30.11F WCI  -9
$$



USA.gov is the U.S. government's official web portal to all federal, state and local government web resources and services.